Change the Weather History Date:

Monday, March 11, 2013

  Actual Average Record
Temperature  
Mean Temperature 48 °F -  
Max Temperature 69 °F 69 °F 87 °F (2014)
Min Temperature 28 °F 43 °F 28 °F (2013)
Degree Days  
Heating Degree Days 16    
Moisture  
Dew Point 16 °F    
Average Humidity 31    
Maximum Humidity 55    
Minimum Humidity 14    
Precipitation  
Precipitation 0.00 in - - ()
Sea Level Pressure  
Sea Level Pressure 30.12 in    
Wind  
Wind Speed 2 mph (WNW)    
Max Wind Speed 10 mph    
Max Gust Speed 21 mph    
Visibility 10 miles    
Events      
Averages and records for this station are not official NWS values.
T = Trace of Precipitation, MM = Missing Value Source: NWS Daily Summary

Daily Weather History Graph

Daily Weather History Graph

Search for Another Location

Airport or City:

Trip Planner

Search our weather history database for the weather conditions in past years. The results will help you decide how hot, cold, wet, or windy it might be!

Date:

Astronomy

Mar. 11, 2013 Rise Set
Actual Time 7:59 AM CDT 7:50 PM CDT
Civil Twilight 7:35 AM CDT 8:14 PM CDT
Nautical Twilight 7:07 AM CDT 8:42 PM CDT
Astronomical Twilight 6:39 AM CDT 9:10 PM CDT
Moon 7:36 AM CDT (3/11) 8:00 PM CDT (3/11)
Length of Visible Light 12h 39m
Length of Day
11h 51m
Waning Crescent, 0% of the Moon is Illuminated
Mar 11
Waning Crescent
Mar 11
New
Mar 19
First Quarter
Mar 27
Full
Apr 2
Last Quarter

Hourly Weather History & Observations

Time (CDT) Temp. Windchill Dew Point Humidity Pressure Visibility Wind Dir Wind Speed Gust Speed Precip Events Conditions
12:15 AM 37.4 °F - 12.2 °F 36% 30.19 in 10.0 mi Calm Calm - N/A   Clear
12:35 AM 35.6 °F - 12.2 °F 38% 30.19 in 10.0 mi Calm Calm - N/A   Clear
12:55 AM 33.8 °F - 12.2 °F 41% 30.19 in 10.0 mi Calm Calm - N/A   Clear
1:15 AM 33.8 °F - 12.2 °F 41% 30.18 in 10.0 mi Calm Calm - N/A   Clear
1:35 AM 33.8 °F - 12.2 °F 41% 30.18 in 10.0 mi Calm Calm - N/A   Clear
1:55 AM 32.0 °F - 12.2 °F 44% 30.17 in 10.0 mi Calm Calm - N/A   Clear
2:15 AM 32.0 °F - 12.2 °F 44% 30.17 in 10.0 mi Calm Calm - N/A   Clear
2:35 AM 32.0 °F - 12.2 °F 44% 30.17 in 10.0 mi Calm Calm - N/A   Clear
2:55 AM 32.0 °F - 12.2 °F 44% 30.19 in 10.0 mi Calm Calm - N/A   Clear
3:15 AM 32.0 °F - 12.2 °F 44% 30.18 in 10.0 mi Calm Calm - N/A   Clear
3:35 AM 30.2 °F - 10.4 °F 44% 30.17 in 10.0 mi Calm Calm - N/A   Clear
3:55 AM 30.2 °F - 10.4 °F 44% 30.17 in 10.0 mi Calm Calm - N/A   Clear
4:15 AM 30.2 °F 26.7 °F 12.2 °F 47% 30.16 in 10.0 mi ENE 3.5 mph - N/A   Clear
4:35 AM 32.0 °F - 14.0 °F 48% 30.15 in 10.0 mi Calm Calm - N/A   Clear
4:55 AM 30.2 °F 26.7 °F 12.2 °F 47% 30.15 in 10.0 mi NE 3.5 mph - N/A   Clear
5:15 AM 32.0 °F 27.5 °F 14.0 °F 48% 30.15 in 10.0 mi NE 4.6 mph - N/A   Clear
5:35 AM 30.2 °F - 14.0 °F 51% 30.15 in 10.0 mi Calm Calm - N/A   Clear
5:55 AM 30.2 °F - 14.0 °F 51% 30.15 in 10.0 mi Calm Calm - N/A   Clear
6:15 AM 30.2 °F - 14.0 °F 51% 30.16 in 10.0 mi Calm Calm - N/A   Clear
6:35 AM 30.2 °F - 14.0 °F 51% 30.16 in 10.0 mi Calm Calm - N/A   Clear
6:55 AM 30.2 °F - 14.0 °F 51% 30.17 in 10.0 mi Calm Calm - N/A   Clear
7:15 AM 30.2 °F - 12.2 °F 47% 30.17 in 10.0 mi Calm Calm - N/A   Clear
7:35 AM 28.4 °F - 14.0 °F 55% 30.18 in 10.0 mi Calm Calm - N/A   Clear
7:55 AM 28.4 °F - 14.0 °F 55% 30.18 in 10.0 mi Calm Calm - N/A   Clear
8:15 AM 30.2 °F - 15.8 °F 55% 30.19 in 10.0 mi Calm Calm - N/A   Clear
8:35 AM 30.2 °F - 14.0 °F 51% 30.19 in 10.0 mi Calm Calm - N/A   Clear
8:55 AM 32.0 °F - 17.6 °F 55% 30.19 in 10.0 mi Calm Calm - N/A   Clear
9:15 AM 35.6 °F 32.8 °F 17.6 °F 48% 30.20 in 10.0 mi NNE 3.5 mph - N/A   Clear
9:35 AM 41.0 °F 39.0 °F 17.6 °F 39% 30.20 in 10.0 mi NNE 3.5 mph - N/A   Clear
9:55 AM 44.6 °F 43.1 °F 15.8 °F 31% 30.20 in 10.0 mi ENE 3.5 mph - N/A   Clear
10:15 AM 46.4 °F - 12.2 °F 25% 30.19 in 10.0 mi Calm Calm - N/A   Clear
10:35 AM 50.0 °F - 14.0 °F 24% 30.19 in 10.0 mi Calm Calm - N/A   Clear
10:55 AM 51.8 °F - 14.0 °F 22% 30.19 in 10.0 mi Calm Calm - N/A   Clear
11:15 AM 53.6 °F - 14.0 °F 21% 30.18 in 10.0 mi SSW 3.5 mph - N/A   Clear
11:35 AM 55.4 °F - 15.8 °F 21% 30.18 in 10.0 mi Calm Calm - N/A   Clear
11:55 AM 59.0 °F - 17.6 °F 20% 30.18 in 10.0 mi WSW 6.9 mph - N/A   Clear
12:15 PM 59.0 °F - 17.6 °F 20% 30.17 in 10.0 mi WNW 9.2 mph - N/A   Clear
12:35 PM 62.6 °F - 19.4 °F 19% 30.17 in 10.0 mi WNW 9.2 mph - N/A   Clear
1:15 PM 64.4 °F - 19.4 °F 18% 30.15 in 10.0 mi WNW 9.2 mph - N/A   Clear
1:35 PM 66.2 °F - 19.4 °F 17% 30.14 in 10.0 mi WNW 9.2 mph 18.4 mph N/A   Clear
1:55 PM 66.2 °F - 19.4 °F 17% 30.13 in 10.0 mi NW 8.1 mph 18.4 mph N/A   Clear
2:15 PM 68.0 °F - 19.4 °F 16% 30.11 in 10.0 mi WSW 6.9 mph 17.3 mph N/A   Clear
2:35 PM 68.0 °F - 19.4 °F 16% 30.09 in 10.0 mi West 9.2 mph - N/A   Clear
2:55 PM 68.0 °F - 19.4 °F 16% 30.08 in 10.0 mi WNW 10.4 mph 20.7 mph N/A   Clear
3:15 PM 68.0 °F - 19.4 °F 16% 30.07 in 10.0 mi West 6.9 mph 17.3 mph N/A   Clear
3:35 PM 69.8 °F - 19.4 °F 15% 30.06 in 10.0 mi NNW 9.2 mph 18.4 mph N/A   Clear
3:55 PM 69.8 °F - 19.4 °F 15% 30.05 in 10.0 mi WNW 9.2 mph 17.3 mph N/A   Clear
4:15 PM 69.8 °F - 19.4 °F 15% 30.04 in 10.0 mi West 3.5 mph - N/A   Clear
4:35 PM 69.8 °F - 17.6 °F 14% 30.03 in 10.0 mi WSW 3.5 mph - N/A   Clear
4:55 PM 69.8 °F - 17.6 °F 14% 30.03 in 10.0 mi NNW 5.8 mph - N/A   Clear
5:15 PM 69.8 °F - 17.6 °F 14% 30.02 in 10.0 mi Calm Calm - N/A   Clear
5:35 PM 69.8 °F - 17.6 °F 14% 30.02 in 10.0 mi NW 4.6 mph - N/A   Clear
5:55 PM 69.8 °F - 17.6 °F 14% 30.02 in 10.0 mi North 4.6 mph - N/A   Clear
6:15 PM 69.8 °F - 17.6 °F 14% 30.01 in 10.0 mi West 3.5 mph - N/A   Clear
6:35 PM 69.8 °F - 17.6 °F 14% 30.01 in 10.0 mi WNW 3.5 mph - N/A   Clear
6:55 PM 69.8 °F - 17.6 °F 14% 30.01 in 10.0 mi WNW 4.6 mph - N/A   Clear
7:15 PM 69.8 °F - 17.6 °F 14% 30.02 in 10.0 mi West 5.8 mph - N/A   Clear
7:35 PM 68.0 °F - 17.6 °F 15% 30.02 in 10.0 mi Calm Calm - N/A   Clear
7:55 PM 66.2 °F - 17.6 °F 15% 30.02 in 10.0 mi WSW 3.5 mph - N/A   Clear
8:15 PM 59.0 °F - 15.8 °F 19% 30.02 in 10.0 mi Calm Calm - N/A   Clear
8:35 PM 57.2 °F - 15.8 °F 20% 30.03 in 10.0 mi South 3.5 mph - N/A   Clear
8:55 PM 55.4 °F - 17.6 °F 23% 30.03 in 10.0 mi South 3.5 mph - N/A   Clear
9:15 PM 51.8 °F - 15.8 °F 24% 30.03 in 10.0 mi South 3.5 mph - N/A   Clear
9:35 PM 50.0 °F - 15.8 °F 26% 30.04 in 10.0 mi Calm Calm - N/A   Clear
9:55 PM 46.4 °F - 15.8 °F 29% 30.04 in 10.0 mi Calm Calm - N/A   Clear
10:15 PM 44.6 °F - 15.8 °F 31% 30.05 in 10.0 mi Calm Calm - N/A   Clear
10:35 PM 46.4 °F - 15.8 °F 29% 30.06 in 10.0 mi Calm Calm - N/A   Clear
10:55 PM 44.6 °F - 17.6 °F 34% 30.06 in 10.0 mi Calm Calm - N/A   Clear
11:15 PM 41.0 °F - 14.0 °F 33% 30.07 in 10.0 mi Calm Calm - N/A   Clear
11:35 PM 41.0 °F - 14.0 °F 33% 30.06 in 10.0 mi Calm Calm - N/A   Clear
11:55 PM 41.0 °F - 15.8 °F 36% 30.06 in 10.0 mi Calm Calm - N/A   Clear